• In Germany
  • List of Countries
  • For 7 days
  • Water Temperature
  • Satellite Maps
  • Weather Map
  • Weather Widgets
  • user-avatar
    Login

    Hourly Weather Malbun

    Today, 26 September, Tuesday

    Time Temperature Precipitation Wind Pressure Humidity
    00:00 +5°C° 0 mm 1 mps 633 mmHg 85%
    01:00 +5°C° 0 mm 1 mps 633 mmHg 83%
    02:00 +5°C° 0 mm 1 mps 633 mmHg 83%
    03:00 +5°C° 0 mm 1 mps 633 mmHg 83%
    04:00 +5°C° 0 mm 1 mps 633 mmHg 84%
    05:00 +5°C° 0 mm 1 mps 633 mmHg 83%
    06:00 +5°C° 0 mm 1 mps 633 mmHg 83%
    07:00 +5°C° 0 mm 1 mps 634 mmHg 82%
    08:00 +7°C° 0 mm 1 mps 634 mmHg 75%
    09:00 +10°C° 0 mm 1 mps 635 mmHg 67%
    10:00 +11°C° 0 mm 0 mps 636 mmHg 59%
    11:00 +13°C° 0 mm 1 mps 636 mmHg 57%
    12:00 +13°C° 0 mm 1 mps 636 mmHg 56%
    13:00 +14°C° 0 mm 1 mps 636 mmHg 54%
    14:00 +13°C° 0.1 mm 1 mps 636 mmHg 59%
    15:00 +13°C° 0.1 mm 1 mps 636 mmHg 64%
    16:00 +12°C° 0.1 mm 1 mps 636 mmHg 68%
    17:00 +10°C° 0.1 mm 1 mps 635 mmHg 76%
    18:00 +9°C° 0.1 mm 1 mps 635 mmHg 85%
    19:00 +7°C° 0.1 mm 1 mps 635 mmHg 93%
    20:00 +7°C° 0 mm 1 mps 635 mmHg 93%
    21:00 +7°C° 0 mm 1 mps 635 mmHg 92%
    22:00 +6°C° 0 mm 1 mps 635 mmHg 92%
    23:00 +6°C° 0 mm 1 mps 635 mmHg 92%

    Tomorrow, 27 September, Wednesday

    Time Temperature Precipitation Wind Pressure Humidity
    00:00 +6°C° 0 mm 1 mps 635 mmHg 91%
    01:00 +6°C° 0 mm 1 mps 635 mmHg 90%
    02:00 +6°C° 0 mm 1 mps 635 mmHg 90%
    03:00 +6°C° 0 mm 1 mps 635 mmHg 89%
    04:00 +6°C° 0 mm 1 mps 635 mmHg 89%
    05:00 +6°C° 0 mm 1 mps 635 mmHg 88%
    06:00 +6°C° 0 mm 1 mps 636 mmHg 87%
    07:00 +6°C° 0 mm 1 mps 636 mmHg 86%
    08:00 +8°C° 0 mm 1 mps 637 mmHg 78%
    09:00 +11°C° 0 mm 1 mps 637 mmHg 71%
    10:00 +13°C° 0 mm 1 mps 638 mmHg 63%
    11:00 +14°C° 0.1 mm 1 mps 638 mmHg 61%
    12:00 +15°C° 0.1 mm 1 mps 638 mmHg 59%
    13:00 +15°C° 0.1 mm 1 mps 638 mmHg 57%
    14:00 +15°C° 0.3 mm 1 mps 638 mmHg 61%
    15:00 +14°C° 0.3 mm 1 mps 638 mmHg 65%
    16:00 +14°C° 0.3 mm 1 mps 638 mmHg 69%
    17:00 +12°C° 0.2 mm 1 mps 637 mmHg 76%
    18:00 +10°C° 0.2 mm 1 mps 637 mmHg 83%
    19:00 +8°C° 0.2 mm 1 mps 636 mmHg 90%
    20:00 +8°C° 0 mm 1 mps 637 mmHg 90%
    21:00 +7°C° 0 mm 1 mps 637 mmHg 89%
    22:00 +6°C° 0 mm 2 mps 637 mmHg 89%
    23:00 +6°C° 0 mm 2 mps 637 mmHg 89%

    Day after tomorrow, 28 September, Thursday

    Time Temperature Precipitation Wind Pressure Humidity
    00:00 +5°C° 0 mm 2 mps 637 mmHg 88%
    01:00 +5°C° 0 mm 2 mps 637 mmHg 88%
    02:00 +5°C° 0 mm 2 mps 637 mmHg 87%
    03:00 +6°C° 0 mm 1 mps 637 mmHg 87%
    04:00 +6°C° 0 mm 1 mps 637 mmHg 86%
    05:00 +6°C° 0 mm 1 mps 637 mmHg 84%
    06:00 +7°C° 0 mm 1 mps 637 mmHg 83%
    07:00 +7°C° 0 mm 1 mps 638 mmHg 81%
    08:00 +9°C° 0 mm 1 mps 638 mmHg 73%
    09:00 +12°C° 0 mm 1 mps 639 mmHg 65%
    10:00 +13°C° 0 mm 0 mps 640 mmHg 57%
    11:00 +15°C° 0 mm 1 mps 640 mmHg 55%
    12:00 +15°C° 0 mm 1 mps 640 mmHg 53%
    13:00 +16°C° 0 mm 1 mps 640 mmHg 51%
    14:00 +16°C° 0 mm 1 mps 640 mmHg 54%
    15:00 +15°C° 0 mm 1 mps 640 mmHg 57%
    16:00 +15°C° 0 mm 1 mps 639 mmHg 59%
    17:00 +13°C° 0 mm 1 mps 639 mmHg 70%
    18:00 +10°C° 0 mm 1 mps 638 mmHg 80%
    19:00 +8°C° 0 mm 1 mps 638 mmHg 90%
    20:00 +8°C° 0 mm 1 mps 638 mmHg 90%
    21:00 +8°C° 0 mm 1 mps 638 mmHg 90%
    22:00 +7°C° 0 mm 1 mps 638 mmHg 89%
    23:00 +7°C° 0 mm 1 mps 638 mmHg 88%

    29 September, Friday

    Time Temperature Precipitation Wind Pressure Humidity
    00:00 +7°C° 0 mm 1 mps 637 mmHg 88%
    01:00 +7°C° 0 mm 1 mps 637 mmHg 87%
    02:00 +7°C° 0 mm 1 mps 637 mmHg 86%
    03:00 +7°C° 0 mm 1 mps 637 mmHg 85%
    04:00 +6°C° 0 mm 1 mps 637 mmHg 85%
    05:00 +7°C° 0 mm 1 mps 637 mmHg 83%
    06:00 +7°C° 0 mm 1 mps 637 mmHg 81%
    07:00 +8°C° 0 mm 1 mps 637 mmHg 80%
    08:00 +10°C° 0 mm 1 mps 638 mmHg 72%
    09:00 +12°C° 0 mm 1 mps 638 mmHg 64%
    10:00 +14°C° 0 mm 1 mps 639 mmHg 56%
    11:00 +14°C° 0.1 mm 1 mps 639 mmHg 57%
    12:00 +15°C° 0.1 mm 1 mps 639 mmHg 57%
    13:00 +15°C° 0.1 mm 1 mps 639 mmHg 57%
    14:00 +15°C° 0.2 mm 1 mps 638 mmHg 63%
    15:00 +14°C° 0.2 mm 1 mps 638 mmHg 69%
    16:00 +13°C° 0.2 mm 1 mps 637 mmHg 75%
    17:00 +12°C° 0.2 mm 1 mps 637 mmHg 80%
    18:00 +10°C° 0.2 mm 1 mps 637 mmHg 86%
    19:00 +9°C° 0.2 mm 1 mps 637 mmHg 92%
    20:00 +8°C° 0 mm 1 mps 636 mmHg 91%
    21:00 +8°C° 0 mm 1 mps 636 mmHg 90%
    22:00 +7°C° 0 mm 1 mps 636 mmHg 90%
    23:00 +7°C° 0 mm 1 mps 636 mmHg 88%

    30 September, Saturday

    Time Temperature Precipitation Wind Pressure Humidity
    00:00 +7°C° 0 mm 1 mps 636 mmHg 87%
    01:00 +6°C° 0 mm 1 mps 635 mmHg 86%
    02:00 +6°C° 0 mm 1 mps 635 mmHg 85%
    03:00 +6°C° 0 mm 1 mps 635 mmHg 84%
    04:00 +6°C° 0 mm 1 mps 635 mmHg 83%
    05:00 +6°C° 0 mm 1 mps 635 mmHg 82%
    06:00 +7°C° 0 mm 1 mps 635 mmHg 81%
    07:00 +7°C° 0 mm 1 mps 635 mmHg 81%
    08:00 +9°C° 0 mm 1 mps 635 mmHg 74%
    09:00 +12°C° 0 mm 1 mps 636 mmHg 68%
    10:00 +13°C° 0 mm 0 mps 637 mmHg 62%
    11:00 +15°C° 0 mm 1 mps 636 mmHg 60%
    12:00 +15°C° 0 mm 1 mps 636 mmHg 59%
    13:00 +16°C° 0 mm 1 mps 636 mmHg 58%
    14:00 +15°C° 0.2 mm 1 mps 636 mmHg 63%
    15:00 +14°C° 0.2 mm 1 mps 635 mmHg 68%
    16:00 +14°C° 0.2 mm 1 mps 635 mmHg 73%
    17:00 +12°C° 0.2 mm 1 mps 635 mmHg 81%
    18:00 +10°C° 0.2 mm 1 mps 634 mmHg 88%
    19:00 +8°C° 0.2 mm 0 mps 634 mmHg 95%
    20:00 +8°C° 0.1 mm 0 mps 634 mmHg 95%
    21:00 +7°C° 0.1 mm 0 mps 634 mmHg 95%
    22:00 +7°C° 0.1 mm 0 mps 634 mmHg 96%
    23:00 +8°C° 0.2 mm 1 mps 634 mmHg 95%

    1 October, Sunday

    Time Temperature Precipitation Wind Pressure Humidity
    00:00 +8°C° 0.2 mm 1 mps 634 mmHg 95%
    01:00 +9°C° 0.2 mm 1 mps 634 mmHg 95%
    02:00 +9°C° 0.3 mm 1 mps 634 mmHg 95%
    03:00 +9°C° 0.3 mm 1 mps 634 mmHg 95%
    04:00 +8°C° 0.3 mm 0 mps 633 mmHg 95%
    05:00 +8°C° 0.5 mm 0 mps 634 mmHg 95%
    06:00 +8°C° 0.5 mm 0 mps 634 mmHg 95%
    07:00 +8°C° 0.5 mm 0 mps 634 mmHg 95%
    08:00 +9°C° 0.6 mm 1 mps 634 mmHg 94%
    09:00 +9°C° 0.6 mm 1 mps 634 mmHg 93%
    10:00 +10°C° 0.6 mm 1 mps 635 mmHg 92%
    11:00 +10°C° 0.5 mm 1 mps 635 mmHg 92%
    12:00 +10°C° 0.5 mm 1 mps 635 mmHg 91%
    13:00 +10°C° 0.5 mm 1 mps 635 mmHg 91%
    14:00 +10°C° 0.4 mm 1 mps 635 mmHg 90%
    15:00 +10°C° 0.4 mm 1 mps 635 mmHg 90%
    16:00 +10°C° 0.4 mm 1 mps 635 mmHg 89%
    17:00 +9°C° 0.3 mm 1 mps 635 mmHg 92%
    18:00 +8°C° 0.3 mm 0 mps 634 mmHg 94%
    19:00 +7°C° 0.3 mm 0 mps 634 mmHg 97%
    20:00 +7°C° 0.1 mm 0 mps 634 mmHg 96%
    21:00 +7°C° 0.1 mm 1 mps 634 mmHg 96%
    22:00 +7°C° 0.1 mm 1 mps 634 mmHg 96%
    23:00 +7°C° 0.1 mm 1 mps 634 mmHg 96%
    Show more